Location: Bagnara
(41.0500°N, 14.7833°E)
Time: 08:50:23
(UTC+00:00)

Helios 1B rocket - Pass Details

Date: 20 June 2021
Orbit: 573 x 583 km, 98.2° (Epoch: 04 August)

Event Time Altitude Azimuth Distance (km) Brightness Sun altitude
Rises 00:48:14 0° 13° (NNE) 2,795 7.3 -21.0°
Reaches altitude 10° 00:50:23 10° 14° (NNE) 1,891 6.2 -20.8°
Maximum altitude 00:54:30 86° 104° (ESE) 581 2.3 -20.5°
Enters shadow 00:55:17 57° 187° (S) 678 2.4 -20.4°
